This is the latest recevied weather packets stored in our database for station/object SP3WRO-2. If no packets are shown the sender has not sent any weather packets the latest 10 day(s).
| Time | Temp. | Humidity | Pressure | Rain* | Wind** | Luminosity | Snow |
|---|---|---|---|---|---|---|---|
| 1787900330 | 19.44° C | 59% | 1012.8 hPa | - | - | 176 W/m² | - |
| 1787899429 | 18.33° C | 61% | 1013.2 hPa | - | - | 181 W/m² | - |
| 1787898528 | 17.78° C | 64% | 1013.1 hPa | - | - | 154 W/m² | - |
| 1787897627 | 17.78° C | 64% | 1013.4 hPa | - | - | 141 W/m² | - |
| 1787896725 | 17.22° C | 66% | 1013.7 hPa | - | - | 139 W/m² | - |
| 1787895824 | 16.67° C | 67% | 1013.8 hPa | - | - | 104 W/m² | - |
| 1787894924 | 16.11° C | 67% | 1013.9 hPa | - | - | 73 W/m² | - |
| 1787894023 | 16.11° C | 68% | 1014.1 hPa | - | - | 56 W/m² | - |
| 1787893122 | 15.56° C | 67% | 1013.7 hPa | - | - | 45 W/m² | - |
| 1787892221 | 15.56° C | 68% | 1013.8 hPa | - | - | 28 W/m² | - |
| 1787891320 | 15° C | 69% | 1014.1 hPa | - | - | 16 W/m² | - |
| 1787890419 | 15° C | 70% | 1014.2 hPa | - | - | 7 W/m² | - |
| 1787889518 | 14.44° C | 71% | 1014.3 hPa | - | - | 2 W/m² | - |
| 1787888617 | 14.44° C | 71% | 1014.5 hPa | - | - | 1 W/m² | - |
| 1787887716 | 14.44° C | 71% | 1014.6 hPa | - | - | - | - |
| 1787886816 | 14.44° C | 71% | 1014.8 hPa | - | - | - | - |
| 1787885914 | 15° C | 71% | 1014.6 hPa | - | - | - | - |
| 1787885014 | 15° C | 69% | 1014.7 hPa | - | - | - | - |
| 1787884112 | 15° C | 70% | 1015 hPa | - | - | - | - |
| 1787883211 | 14.44° C | 70% | 1015 hPa | - | - | - | - |
| 1787882310 | 15° C | 70% | 1015.1 hPa | - | - | - | - |
| 1787881410 | 15.56° C | 69% | 1015.2 hPa | - | - | - | - |
| 1787880509 | 15.56° C | 67% | 1015.3 hPa | - | - | - | - |
| 1787879608 | 15.56° C | 68% | 1015 hPa | - | - | - | - |
| 1787878707 | 16.11° C | 67% | 1015 hPa | - | - | - | - |
* Rain since midnight (hover to see other rain measurements)
** Current wind speed in m/s (hover to see current wind gust speed)